Location: Unspecified
(48.5539°N, 71.6350°W)
Time: 06:04:26
(UTC-05:00)

ISS - Pass Details

Date: 29 January 2019
Orbit: 403 x 411 km, 51.6° (Epoch: 23 February)

Event Time Altitude Azimuth Distance (km) Brightness Sun altitude
Rises 18:25:49 0° 270° (W) 2,334 1.7 -17.5°
Reaches altitude 10° 18:27:57 10° 276° (W) 1,476 0.2 -17.9°
Maximum altitude 18:31:10 50° 353° (N) 534 -3.3 -18.4°
Enters shadow 18:31:35 46° 20° (NNE) 560 -3.4 -18.5°
Drops below altitude 10° 18:34:26 10° 70° (ENE) 1,482 - -18.9°
Sets 18:36:34 0° 76° (ENE) 2,346 - -19.3°
